Weather observations for the past three days for
Savoonga Airport
Imperial (Metric)
Date Time (akdt) Wind (mph) Vis. (mi.) Weather Sky Cond. Temperature (ºF) Relative Humidity Wind Chill (°F) Heat Index (°F) Pressure Precipitation (in)
Air Dwpt 6 hour altimeter (in) sea level (mb) 1 hr 3 hr 6 hr
Max. Min.
12 19:56 NW 5 3.00 Light Rain Fog/Mist OVC003 42.1 42.1 100% 40 29.42 996.1 0.02
12 18:56 SW 6 0.75 Light Rain Fog/Mist OVC003 42.1 42.1 100% 39 29.43 996.5 0.01 0.03
12 16:53 NW 5 0.75 Light Rain Fog/Mist OVC003 42.1 42.1 100% 40 29.47 997.9
12 15:56 NE 6 9.00 Light Rain BKN003 OVC009 43 43 44.1 42.1 100% 40 29.49 998.6 0.02
12 14:56 NE 7 0.25 Light Rain Fog OVC003 42.1 42.1 100% 38 29.51 999.3 0.01
12 13:56 NE 6 0.75 Light Rain Fog/Mist OVC003 43 43 100% 40 29.52 999.8
12 12:56 NE 8 0.25 Light Rain Fog OVC003 43 43 100% 39 29.54 1000.4 0.01
12 11:56 NE 6 0.25 Light Rain Fog OVC003 42.1 42.1 100% 39 29.55 1000.7
12 10:56 NE 8 1.00 Light Rain Fog/Mist OVC003 42.1 42.1 100% 38 29.56 1001.1 0.01
12 09:56 E 10 9.00 Light Rain BKN001 BKN007 OVC048 43 43 43 41 100% 38 29.57 1001.3 0.01 0.04
12 08:56 E 9 0.75 Fog/Mist OVC003 42.1 42.1 100% 37 29.58 1001.5
12 07:56 E 6 0.25 Light Rain Fog OVC003 42.1 42.1 100% 39 29.59 1001.9
12 06:56 E 5 0.25 Light Rain Fog OVC003 42.1 42.1 100% 40 29.6 1002.2 0.02 0.03
12 05:55 E 3 2.00 Light Rain Fog/Mist OVC003 42.1 42.1 100% 29.62 1003.0 0.01
12 04:56 NE 6 0.75 Light Rain Fog/Mist OVC003 41 41 100% 38 29.63 1003.4
12 03:56 NE 3 10.00 Light Rain OVC085 41 41 43 41 100% 29.65 1004.0 0.04
12 02:56 E 9 10.00 Overcast FEW019 OVC075 41 41 100% 36 29.66 1004.5 0.01
12 01:56 E 10 10.00 Overcast BKN011 BKN047 OVC060 43 42.1 97% 38 29.67 1004.8
12 00:56 E 13 10.00 Light Rain SCT007 OVC045 43 42.1 97% 37 29.67 1004.8 0.02 0.03
11 23:56 E 17 10.00 Light Rain FEW003 BKN045 OVC050 41 41 100% 33 29.68 1004.9 0.01
11 22:56 E 15 10.00 Light Rain FEW003 SCT043 OVC050 42.1 42.1 100% 35 29.67 1004.8
11 21:56 E 17 10.00 Light Rain FEW017 BKN036 OVC055 42.1 41 45 42.1 96% 34 29.67 1004.7 0.01 0.05
11 20:56 E 14 10.00 Light Rain FEW012 BKN042 OVC060 44.1 42.1 93% 38 29.66 1004.3
11 19:56 SE 10 10.00 Overcast BKN040 BKN049 OVC060 45 43 93% 40 29.65 1004.2
11 18:56 E 13 10.00 Light Rain FEW016 OVC065 44.1 41 89% 38 29.66 1004.2 0.02 0.04
11 17:56 E 16 10.00 Light Rain FEW016 SCT038 OVC060 44.1 42.1 93% 37 29.65 1003.9 0.01
11 16:56 SE 16 G 22 10.00 Light Rain SCT014 OVC070 44.1 41 89% 37 29.63 1003.3 0.01
11 15:56 SE 15 10.00 Light Rain OVC065 44.1 41 46 39.9 89% 38 29.62 1003.0 0.01 0.01
11 14:56 E 17 G 22 10.00 Light Rain SCT013 OVC038 44.1 41 89% 37 29.61 1002.6
11 13:56 SE 21 G 29 10.00 Overcast and Breezy OVC009 45 42.1 90% 37 29.59 1002.1
11 12:56 SE 24 G 31 10.00 Overcast and Breezy OVC007 46 44.1 93% 38 29.57 1001.4
11 11:56 E 24 G 30 9.00 Overcast and Breezy OVC009 42.1 41 96% 33 29.58 1001.6
11 10:56 E 22 10.00 Overcast and Breezy SCT025 BKN055 OVC090 43 39.9 89% 35 29.58 1001.6
11 09:56 E 14 10.00 Overcast OVC034 41 39 41 37.9 93% 34 29.58 1001.5 0.01
11 08:56 E 13 10.00 Light Rain OVC048 39.9 39.9 100% 33 29.58 1001.7
11 07:56 E 7 0.75 Light Rain Fog/Mist OVC003 39 39 100% 35 29.58 1001.8
11 06:56 Calm 1.00 Fog/Mist OVC003 39 39 100% 29.59 1002.0 0.01
11 05:56 Calm 1.25 Fog/Mist OVC003 37.9 37.9 100% 29.59 1002.0
11 04:56 Calm 1.50 Light Rain Fog/Mist OVC003 37.9 37.9 100% 29.6 1002.4 0.01
11 03:56 Calm 2.00 Light Rain Fog/Mist OVC003 37.9 37.9 39 37.9 100% 29.61 1002.7
11 02:56 Calm 1.50 Light Rain Fog/Mist OVC003 37.9 37.9 100% 29.62 1003.1
11 01:56 E 3 2.00 Light Rain Fog/Mist OVC005 37.9 37 97% 29.63 1003.4
11 00:56 NE 6 10.00 Overcast OVC009 39 37 93% 35 29.64 1003.7
10 23:56 NE 5 10.00 Overcast OVC009 39 36 89% 36 29.65 1003.9
10 22:56 NE 6 10.00 Overcast OVC009 39 37 93% 35 29.65 0.0
10 21:56 NE 8 10.00 Overcast OVC009 39 37 39 37.9 93% 34 29.65 0.0
10 20:56 NE 7 10.00 Overcast OVC009 39 36 89% 35 29.66 0.0
10 19:56 NE 8 10.00 Overcast BKN009 OVC015 39 36 89% 34 29.66 0.0
10 18:56 NE 8 10.00 Overcast OVC009 39 36 89% 34 29.66 0.0
10 17:56 NE 8 10.00 Overcast BKN009 OVC060 37.9 35.1 89% 33 29.67 0.0
10 16:56 N 6 10.00 Mostly Cloudy BKN060 37.9 35.1 89% 34 29.67 0.0
10 15:56 NE 9 10.00 Overcast BKN060 OVC070 37.9 33.1 83% 32 29.67 0.0
10 14:56 NE 9 10.00 Overcast FEW013 OVC050 37.9 33.1 83% 32 29.66 0.0
10 13:56 N 9 10.00 Overcast BKN012 BKN049 OVC060 37.9 33.1 83% 32 29.65 0.0
10 12:56 NE 8 10.00 Overcast BKN014 BKN033 OVC055 37.9 33.1 83% 33 29.65 0.0
10 11:56 NE 8 10.00 Overcast SCT012 BKN048 OVC060 37.9 33.1 83% 33 29.65 0.0
10 07:56 NE 12 10.00 Partly Cloudy SCT080 37.9 32 79% 31 29.61 1002.8
Date Time (akdt) Wind (mph) Vis. (mi.) Weather Sky Cond. Air Dwpt Max. Min. Relative Humidity Wind Chill (°F) Heat Index (°F) altimeter (in) sea level (mb) 1 hr 3 hr 6 hr
6 hour
Temperature (ºF) Pressure Precipitation (in)